Weather History for Salem, OR

Change the Weather History Date:

Thursday, November 29, 2012

  Actual Average Record
Temperature  
Mean Temperature 45 °F 42 °F  
Max Temperature 54 °F 49 °F 62 °F (1917)
Min Temperature 35 °F 36 °F 12 °F (1896)
Degree Days  
Heating Degree Days 20 23  
Month to date heating degree days 503 561  
Since 1 July heating degree days 903 1093  
Cooling Degree Days 0 0  
Month to date cooling degree days 0 0  
Year to date cooling degree days 317 290  
Moisture  
Dew Point 43 °F    
Average Humidity 86    
Maximum Humidity 100    
Minimum Humidity 71    
Precipitation  
Precipitation 0.26 in 0.25 in 3.00 in (1893)
Month to date precipitation 8.32 6.24  
Year to date precipitation 46.40 32.55  
Snow  
Snow 0.00 in - - ()
Month to date snowfall 0.0  
Since 1 July snowfall 0.0  
Since 1 September snowfall 0.0  
Snow Depth 0.00 in    
Sea Level Pressure  
Sea Level Pressure 29.60 in    
Wind  
Wind Speed 7 mph (South)    
Max Wind Speed 30 mph    
Max Gust Speed 39 mph    
Visibility 7 miles    
Events Fog , Rain    
T = Trace of Precipitation, MM = Missing Value Source: NWS Daily Summary

Daily Weather History Graph

Daily Weather History Graph

Search for Another Location

Airport:

Trip Planner

Search our weather history database for the weather conditions in past years. The results will help you decide how hot, cold, wet, or windy it might be!

Date:

Astronomy

Nov. 29, 2012 Rise Set
Actual Time 7:28 AM PST 4:32 PM PST
Civil Twilight 6:55 AM PST 5:05 PM PST
Nautical Twilight 6:18 AM PST 5:42 PM PST
Astronomical Twilight 5:43 AM PST 6:17 PM PST
Moon 5:40 PM PST (11/29) 8:19 AM PST (11/29)
Length of Visible Light 10h 10m
Length of Day
9h 04m
Full, 99% of the Moon is Illuminated
Nov 29
Full
Dec 6
Last Quarter
Dec 13
New
Dec 19
First Quarter
Dec 28
Full

Hourly Weather History & Observations

Time (PST) Temp. Windchill Dew Point Humidity Pressure Visibility Wind Dir Wind Speed Gust Speed Precip Events Conditions
12:00 AM 39.2 °F - 37.4 °F 93% 29.67 in 3.0 mi Calm Calm - N/A   Clear
12:34 AM 37.4 °F 34.9 °F 37.4 °F 100% 29.66 in 1.0 mi West 3.5 mph - N/A   Clear
12:45 AM 35.6 °F - 35.6 °F 100% 29.65 in 0.5 mi Calm Calm - N/A Fog Fog
12:56 AM 37.0 °F 32.4 °F 37.0 °F 100% 29.66 in 2.0 mi SSW 5.8 mph - N/A   Partly Cloudy
1:04 AM 37.4 °F 33.8 °F 37.4 °F 100% 29.65 in 4.0 mi Variable 4.6 mph - N/A   Partly Cloudy
1:36 AM 37.4 °F - 37.4 °F 100% 29.64 in 1.8 mi Calm Calm - N/A   Mostly Cloudy
1:56 AM 37.9 °F - 37.9 °F 100% 29.64 in 2.5 mi Calm Calm - N/A   Scattered Clouds
2:09 AM 37.4 °F - 37.4 °F 100% 29.64 in 1.2 mi Calm Calm - N/A   Clear
2:17 AM 37.4 °F - 37.4 °F 100% 29.63 in 0.5 mi Calm Calm - N/A Fog Fog
2:26 AM 39.2 °F - 39.2 °F 100% 29.64 in 1.8 mi Calm Calm - N/A   Clear
2:32 AM 39.2 °F - 37.4 °F 93% 29.64 in 3.0 mi Calm Calm - N/A   Partly Cloudy
2:56 AM 41.0 °F 39.0 °F 41.0 °F 100% 29.64 in 6.0 mi West 3.5 mph - N/A   Mostly Cloudy
3:56 AM 41.0 °F - 41.0 °F 100% 29.59 in 9.0 mi Calm Calm - 0.00 in   Overcast
4:56 AM 42.1 °F - 41.0 °F 96% 29.57 in 7.0 mi Calm Calm - N/A   Overcast
5:56 AM 43.0 °F - 42.1 °F 97% 29.58 in 10.0 mi Calm Calm - 0.01 in Rain Light Rain
6:56 AM 43.0 °F 38.8 °F 42.1 °F 97% 29.62 in 10.0 mi SE 6.9 mph - 0.00 in Rain Light Rain
7:56 AM 50.0 °F - 46.0 °F 86% 29.63 in 4.0 mi South 20.7 mph 28.8 mph 0.08 in Rain Rain
8:56 AM 50.0 °F - 46.9 °F 89% 29.65 in 8.0 mi South 18.4 mph 26.5 mph 0.03 in Rain Light Rain
9:56 AM 51.1 °F - 46.9 °F 86% 29.63 in 10.0 mi SSE 15.0 mph - 0.00 in   Mostly Cloudy
10:56 AM 52.0 °F - 46.9 °F 83% 29.64 in 10.0 mi SSE 15.0 mph 21.9 mph N/A   Mostly Cloudy
11:56 AM 53.1 °F - 46.0 °F 77% 29.62 in 10.0 mi SSE 17.3 mph 26.5 mph 0.01 in   Mostly Cloudy
12:56 PM 54.0 °F - 46.0 °F 75% 29.61 in 10.0 mi SSE 11.5 mph 23.0 mph N/A   Mostly Cloudy
1:56 PM 54.0 °F - 45.0 °F 72% 29.60 in 10.0 mi SSE 11.5 mph 20.7 mph N/A   Overcast
2:56 PM 51.1 °F - 48.0 °F 89% 29.59 in 7.0 mi SSE 12.7 mph 18.4 mph 0.01 in Rain Light Rain
3:56 PM 50.0 °F - 46.9 °F 89% 29.57 in 7.0 mi South 6.9 mph - 0.03 in Rain Light Rain
4:56 PM 48.9 °F - 46.9 °F 93% 29.55 in 10.0 mi Calm Calm - 0.01 in   Overcast
5:56 PM 48.0 °F - 46.9 °F 96% 29.55 in 10.0 mi Calm Calm - N/A   Overcast
6:56 PM 48.0 °F - 46.9 °F 96% 29.52 in 10.0 mi ESE 4.6 mph - 0.00 in Rain Light Rain
7:56 PM 48.9 °F - 46.9 °F 93% 29.52 in 10.0 mi Calm Calm - 0.00 in Rain Light Rain
8:56 PM 48.9 °F - 48.0 °F 97% 29.52 in 10.0 mi South 8.1 mph - 0.07 in Rain Light Rain
9:56 PM 48.0 °F - 46.9 °F 96% 29.49 in 10.0 mi SE 8.1 mph - 0.01 in   Mostly Cloudy
10:56 PM 51.1 °F - 46.0 °F 83% 29.47 in 10.0 mi South 8.1 mph - N/A   Overcast
11:56 PM 50.0 °F - 46.9 °F 89% 29.48 in 10.0 mi South 10.4 mph - 0.00 in Rain Light Rain